sat.trackr.live / text

‹ back to catalog

STARLINK-33772

NORAD 63656 · 2025-083Y

PAYLOAD ACTIVE UNKNOWN

§ Identity

Operator
Country
US
Launch date
2025-04-25
Launch site
AFETR
Launch vehicle
Mass (kg)
RCS (m²)

Purposes: comms

External: N2YO · Heavens-Above · Gunter

§ Orbital elements

Epoch: 2026-09-20T12:26:13.243776Z

Period
94.27 min
Inclination
42.9972°
Eccentricity
0.0001609
Mean motion
15.27591464 rev/d
Perigee alt
481.9 km
Apogee alt
484.1 km
Semi-major
6,861.2 km
B*
4.2874e-4
RAAN
344.8885°
Arg perigee
279.1248°
Mean anomaly
80.9422°
Rev number
7,989

§ Raw data

STARLINK-337721 63656U 25083Y   26263.51820884  .00011559  00000+0  42874-3 0  99972 63656  42.9972 344.8885 0001609 279.1248  80.9422 15.27591464 79892

JSON: /api/v1/satellites/63656 · /tle

For live sub-satellite position, see the globe view (requires WebGL).

§ Visibility from observer

Set your observer location to see the next 7 days of passes ≥ 10°. The values pass through the URL so the page stays shareable.

No JS? Fill the form by hand. The geolocation button needs JavaScript.